Tracking 18843 objects as of 20-November-2017
HD Live streaming from Space Station
objects crossing your sky now

INTELSAT 2-F4

Track INTELSAT 2-F4 now!
INTELSAT 2-F4 is classified as:


NORAD ID: 2969
Int'l Code: 1967-094A
Perigee: 35,743.9 km
Apogee: 35,871.6 km
Inclination: 3.5 °
Period: 1,436.8 minutes
Semi major axis: 42178 km
RCS: 2.5118 m2 (large)
Launch date: September 28, 1967
Source: International Telecommunications Satellite Organization (ITSO)
Launch site: AIR FORCE EASTERN TEST RANGE (AFETR)
aabbcc
Your satellite tracking list
Your tracking list is empty




NASA's NSSDC Master Catalog

Two Line Element Set (TLE):
1 02969U 67094A   17323.72549285  .00000129  00000-0  00000+0 0  9991
2 02969   3.5088 296.6396 0015128 248.6106 334.6990  1.00221874 85380
Source of the keplerian elements: AFSPC